Overview Statistics Trail Chart Weather Telemetry Raw packets
 

This is the latest recevied weather packets stored in our database for station/object NO9B. If no packets are shown the sender has not sent any weather packets the latest 10 day(s).

<< 65 66 67 68 69 70 71 >>
Time Temp. Humidity Pressure Rain* Wind** Luminosity Snow
1788221050 28.33° C 79% 1013.6 hPa 0 mm - 4 W/m² -
1788220749 28.33° C 79% 1013.8 hPa 0 mm - 5 W/m² -
1788220446 28.33° C 78% 1013.9 hPa 0 mm - 6 W/m² -
1788220146 28.33° C 79% 1013.8 hPa 0 mm - 9 W/m² -
1788219840 28.33° C 78% 1013.8 hPa 0 mm - 13 W/m² -
1788219536 28.33° C 77% 1013.9 hPa 0 mm - 17 W/m² -
1788219231 28.33° C 77% 1013.8 hPa 0 mm - 13 W/m² -
1788218926 28.33° C 77% 1013.5 hPa 0 mm - 4 W/m² -
1788218622 28.33° C 77% 1013.5 hPa 0 mm - 5 W/m² -
1788218318 28.33° C 77% 1013.4 hPa 0 mm - 11 W/m² -
1788218014 28.89° C 77% 1013.4 hPa 0 mm - 14 W/m² -
1788217710 28.89° C 75% 1013.5 hPa 0 mm - 19 W/m² -
1788217410 28.89° C 75% 1013.5 hPa 0 mm - 18 W/m² -
1788217110 28.89° C 74% 1013.7 hPa 0 mm - 27 W/m² -
1788216804 29.44° C 73% 1013.4 hPa 0 mm - 28 W/m² -
1788216501 29.44° C 73% 1013.4 hPa 0 mm - 42 W/m² -
1788216201 29.44° C 74% 1013.4 hPa 0 mm - 44 W/m² -
1788215896 29.44° C 73% 1013.3 hPa 0 mm - 48 W/m² -
1788215592 29.44° C 74% 1013.1 hPa 0 mm - 40 W/m² -
1788215289 30° C 73% 1013.2 hPa 0 mm - 37 W/m² -
1788214984 30.56° C 71% 1013.2 hPa 0 mm - 37 W/m² -
1788214679 30° C 70% 1013.2 hPa 0 mm - 108 W/m² -
1788214375 30° C 71% 1013.4 hPa 0 mm - 169 W/m² -
1788214074 30.56° C 70% 1013.3 hPa 0 mm - 46 W/m² -
1788213769 30.56° C 71% 1013.3 hPa 0 mm - 211 W/m² -

* Rain latest hour (hover to see other rain measurements)
** Current wind speed in m/s (hover to see current wind gust speed)